Location: Oshawa
(43.9000°N, 78.8670°W)
Time: 09:16:42
(UTC-04:00)

Iridium 98 - Visible Passes

Search period start: 31 August 2015 00:00
Search period end: 10 September 2015 00:00
Orbit: 776 x 779 km, 86.4° (Epoch: 30 August)

Date Brightness Start Highest point End Pass type
(mag) Time Alt. Az. Time Alt. Az. Time Alt. Az.
31 Aug 8.0 00:10:43 13° W 00:11:51 14° WNW 00:14:24 10° NW visible
31 Aug 5.9 21:56:37 41° E 21:56:55 42° E 22:01:50 10° NNE visible
31 Aug 7.3 23:37:05 24° W 23:37:53 24° WNW 23:42:04 10° NNW visible
01 Sep 6.6 21:22:58 23° E 21:23:35 24° E 21:27:44 10° NNE visible
01 Sep 6.4 23:03:25 41° WSW 23:04:05 43° W 23:09:03 10° N visible
02 Sep 7.3 20:49:17 12° E 20:50:20 13° ENE 20:52:52 10° NE visible
02 Sep 5.5 22:29:45 65° SSW 22:30:27 77° W 22:35:42 10° N visible
03 Sep 5.5 21:56:02 51° SE 21:56:57 60° E 22:02:06 10° N visible
03 Sep 7.8 23:36:29 15° W 23:38:13 18° WNW 23:41:34 10° NNW visible
04 Sep 6.2 21:22:19 29° ESE 21:23:33 33° E 21:28:13 10° NNE visible
04 Sep 7.1 23:02:46 26° WSW 23:04:19 30° WNW 23:08:52 10° NNW visible
05 Sep 6.9 20:48:33 16° ESE 20:50:14 19° E 20:53:54 10° NE visible
05 Sep 6.1 22:29:00 39° SW 22:30:35 54° W 22:35:42 10° N visible
06 Sep 7.4 20:16:29 10° E 20:17:01 10° ENE 20:17:54 10° ENE visible
06 Sep 5.4 21:55:12 42° S 21:57:00 85° E 22:02:15 10° N visible
06 Sep 8.2 23:36:21 10° W 23:38:36 12° WNW 23:40:34 10° NW visible
07 Sep 5.8 21:21:20 29° SE 21:23:32 47° E 21:28:33 10° NNE visible
07 Sep 7.7 23:01:47 15° WSW 23:04:36 22° WNW 23:08:32 10° NNW visible
08 Sep 6.5 20:47:26 17° SE 20:50:10 27° E 20:54:31 10° NNE visible
08 Sep 6.8 22:27:52 21° SW 22:30:46 38° W 22:35:36 10° NNW visible
09 Sep 7.1 20:14:08 10° ESE 20:16:54 15° ENE 20:19:54 10° NE visible
09 Sep 5.7 21:53:52 23° SSW 21:57:05 68° W 22:02:19 10° N visible
